Regional Weather Roundup
Issued by NWS

Home | Current Version | Previous Version | Text Only | Print | Product List | Glossary On
Versions: 1 2 3 4 5 6 7 8 9 10 11 12 13 14 15 16 17 18 19 20 21 22 23 24 25 26 27 28 29 30 31 32 33 34 35 36 37 38 39 40 41 42 43 44 45 46 47 48 49 50
000
ASUS45 KSLC 310310
RWRUT

UTAH REGIONAL WEATHER ROUNDUP
NATIONAL WEATHER SERVICE SALT LAKE CITY UT
900 PM MDT SUN AUG 30 2015

UTZ001>011-023>025-310400-

NORTHERN UTAH

CITY           SKY/WX    TMP DP  RH WIND       PRES   REMARKS
BRIGHAM CITY   PTCLDY    77  42  28 NW8       29.93R
HILL AFB       MOCLDY    75  41  29 SW6       29.96R
LOGAN          CLEAR     72  44  36 N16       29.95R
OGDEN          MOCLDY    76  40  27 SW7       29.93R
PROVO AIRPORT  MOCLDY    73  55  53 NW8       29.95R
SALT LAKE CITY MOCLDY    77  46  33 S5        29.92R
VERNAL         CLOUDY    70  48  45 S5        30.03R
WENDOVER       CLEAR     81  28  15 NW8       29.93R
HEBER CITY     MOCLDY    68  50  52 CALM      30.03S
WEST JORDAN    CLEAR     75  43  31 SW5       29.97R

$$

UTZ012>022-026-027-310400-

SOUTHERN/CENTRAL UTAH

CITY           SKY/WX    TMP DP  RH WIND       PRES   REMARKS
BLANDING       CLOUDY    61  57  87 N6        30.23R
BRYCE CANYON   MOCLDY    58  52  80 S3        30.26R
CEDAR CITY     PTCLDY    71  35  26 S7        30.06R
DELTA          PTCLDY    78  39  24 SW8       29.94R
HANKSVILLE     CLOUDY    82  48  30 SW15      30.00R
MILFORD        PTCLDY    79  37  22 SW10      29.98R
MOAB/CYNLANDS  TSTM      69  62  78 CALM      30.01R
PRICE          CLOUDY    68  53  58 SE10      30.09R
ST GEORGE      MOCLDY    93  41  16 SW9       29.85R
KANAB          MOCLDY    66  63  88 N12       30.12S

$$

REGIONAL REPORTS     COLORADO/ARIZONA

CITY           SKY/WX    TMP DP  RH WIND       PRES   REMARKS
CRAIG, CO      CLOUDY    64  51  62 E12       30.15F
GRAND JUNCTION RAIN      63  58  83 NE21      30.10S
RIFLE          CLOUDY    74  48  39 SW31G41   30.15R
MONTROSE       CLOUDY    65  55  70 VRB5      30.19R
CORTEZ         MOCLDY    66  53  63 E5        30.18R
PAGE, AZ       CLOUDY    73  60  63 NW9G16    30.07R
GRAND CANYON   TSTM      60  56  86 SE13      30.22R FOG
KINGMAN        PTCLDY    85  42  22 SW8       29.90R
FLAGSTAFF      CLOUDY    58  54  86 VRB3      30.27R THUNDER

$$

REGIONAL REPORTS    NEVADA/IDAHO/WYOMING

CITY           SKY/WX    TMP DP  RH WIND       PRES   REMARKS
LAS VEGAS, NV  PTCLDY    95  39  14 SW8       29.73R HX  91
ELY            PTCLDY    71  33  24 N3        30.05R
ELKO           CLEAR     72  28  19 NW8       30.03R
POCATELLO, ID  CLEAR     63  36  36 SW10      30.01R
BURLEY         CLEAR     63  40  42 SW7       29.98R
EVANSTON, WY   MOCLDY    66  41  40 S13G24    30.15R
ROCK SPRINGS   CLOUDY    67  44  43 SW6       30.10S
KEMMERER       MOCLDY    64  34  32 W7        30.13S

$$


USA.gov is the U.S. government's official web portal to all federal, state and local government web resources and services.